Regional Weather Roundup
Issued by NWS

Home | Current Version | Previous Version | Graphics & Text | Print | Product List | Glossary On
Versions: 1 2 3 4 5 6 7 8 9 10 11 12 13 14 15 16 17 18 19 20 21 22 23 24 25 26 27 28 29 30 31 32 33 34 35 36 37 38 39 40 41 42 43 44 45 46 47 48 49
000
ASUS45 KBOU 010507
RWRCO

WEATHER ROUNDUP FOR COLORADO
NATIONAL WEATHER SERVICE DENVER/BOULDER CO
1100 PM MDT TUE SEP 30 2014

NOTE: "FAIR" INDICATES FEW OR NO CLOUDS BELOW 12000 FEET WITH NO
SIGNIFICANT WEATHER AND/OR OBSTRUCTIONS TO VISIBILITY.

COZ001>005-013-030-031-010600-
...NORTHWEST COLORADO...

CITY           SKY/WX    TMP DP  RH WIND       PRES   REMARKS
CRAIG          LGT RAIN  47  43  86 N5        30.00R
HAYDEN         CLOUDY    43  39  87 E6        29.99S
MEEKER         CLOUDY    45  42  89 NE6       30.01R
MOUNT WERNER   NOT AVBL
STEAMBOAT SPGS MOCLDY    40  39  96 CALM      30.00F
WALDEN         CLOUDY    37  32  81 S13       30.00F
$$

COZ006>008-011-010600-
...WEST CENTRAL VALLEYS...

CITY           SKY/WX    TMP DP  RH WIND       PRES   REMARKS
GRAND JUNCTION PTCLDY    50  45  83 SE3       29.93S
MONTROSE       PTCLDY    46  41  82 S6        30.00S
EAGLE          MOCLDY    45  43  93 E5        30.05S
RIFLE          PTCLDY    46  39  76 S3        29.98S
DELTA          PTCLDY    51  45  79 NE7       29.98S
NUCLA          PTCLDY    46  41  81 E12       30.02F
$$

COZ017>023-064>068-010600-
...SOUTHWEST COLORADO...

CITY           SKY/WX    TMP DP  RH WIND       PRES   REMARKS
DURANGO        CLEAR     43  38  82 N8        30.03S
CORTEZ         CLEAR     45  41  86 E9        29.99F
PAGOSA SPRINGS CLEAR     40  38  93 NE3       30.07F
TELLURIDE      CLEAR    N/A N/A N/A E3        30.12F
WOLF CREEK PAS MOCLDY    28  28 100 SW12      30.22S WCI  18
$$

COZ009-010-012-014-032>034-037-058>063-010600-
...CENTRAL COLORADO...

CITY           SKY/WX    TMP DP  RH WIND       PRES   REMARKS
ASPEN          PTCLDY    37  34  89 S7        30.05F
BUENA VISTA    PTCLDY    42  31  66 NW7       30.04S
COPPER MTN     SNOW      34  30  86 W13       30.18S VSB 1/2 WCI  25
BERTHOUD PASS  SNOW      25  23  93 NW21G31   30.16S VSB<1/4 WCI  10
COTTONWOOD PAS PTCLDY    43  28  56 NW10G24   30.10S
GUNNISON       PTCLDY    39  34  81 CALM      30.08S
KREMMLING      CLOUDY    41  37  87 SE5       30.04F
LEADVILLE      MOCLDY    36  28  73 N10       30.10R
MONARCH PASS   FOG       30  28  93 MISG      30.26S VSB<1/4
SALIDA         PTCLDY    47  34  59 N3        30.09F
SUNLIGHT       PTCLDY    34  34 100 CALM      30.16S
WILKERSON PASS NOT AVBL
$$

COZ069>075-010600-
...SAN LUIS VALLEY/SANGRE DE CRISTO MOUNTAINS...

CITY           SKY/WX    TMP DP  RH WIND       PRES   REMARKS
ALAMOSA        CLEAR     42  33  70 SW3       30.05R
LA VETA PASS   CLEAR     36  30  80 S10G22    30.10F
SAGUACHE       CLEAR     37  34  87 N9        30.07S
$$

COZ035-036-038>040-010600-
...NORTHERN COLORADO FRONT RANGE...

CITY           SKY/WX    TMP DP  RH WIND       PRES   REMARKS
DENVER INTL AP MOCLDY    55  37  50 W8        29.88S
DMNS CITY PARK   N/A     57  33  39 W3G10     29.89S
AURORA         MOCLDY    54  36  50 NW2       29.91R
FRONT RANGE AP MOCLDY    52  41  66 W9        29.90R
ERIE MUNI ARPT CLOUDY    54  38  54 SW6       29.87S
BOULDER MUN AP CLOUDY    54  36  50 CALM      29.87S
CENTENNIAL     MOCLDY    52  37  56 CALM      29.90S
BROOMFIELD     NOT AVBL
FORT COLLINS   CLOUDY    54  41  62 E8        29.87F
LONGMONT       CLOUDY    56  40  53 CALM      29.87F
$$

COZ041-046-047-076>085-087-088-010600-
...PIKES PEAK/PALMER DIVIDE AND SOUTHERN FOOTHILLS...

CITY           SKY/WX    TMP DP  RH WIND       PRES   REMARKS
COLO. SPRINGS  PTCLDY    54  32  43 W9        29.92R
A. F. ACADEMY  PTCLDY    54  28  36 VRB5      29.95R
ELLICOTT       NOT AVBL
FALCON         PTCLDY    52  29  42 NW12      29.95F
FORT CARSON    PTCLDY    51  35  56 S8        29.90S
LIMON          MOCLDY    53  40  61 N3        29.88F
MONUMENT HILL  MOCLDY    41  34  75 W6        29.95S
TRINIDAD       PTCLDY    50  36  58 W12       29.90F
$$

COZ042>045-048>051-090-091-010600-
...NORTHEAST COLORADO...

CITY           SKY/WX    TMP DP  RH WIND       PRES   REMARKS
GREELEY ARPT   CLOUDY    54  43  66 CALM      29.86F
AKRON          MOCLDY    52  45  77 W9        29.84R
BURLINGTON     MOCLDY    54  47  77 W6        29.82R
WRAY           CLOUDY    55  48  76 W6        29.80R
STERLING       MOCLDY    61  46  59 NW8       29.80S
HOLYOKE        CLOUDY    59  46  63 NW7       29.80R
FORT MORGAN    MOCLDY    55  44  68 NW6       29.84F
$$

COZ086-089-092>099-010600-
...SOUTHEAST COLORADO...

CITY           SKY/WX    TMP DP  RH WIND       PRES   REMARKS
PUEBLO         CLEAR     54  35  48 NW6       29.85R
LA JUNTA       PTCLDY    61  37  41 SW12      29.81S
LAMAR          PTCLDY    59  46  62 N3        29.77S
SPRINGFIELD      N/A     52  41  66 N5        29.80F
$$



USA.gov is the U.S. government's official web portal to all federal, state and local government web resources and services.